Skip Page Navigation
NASA JPL Caltech
NASA Logo - Jet Propulsion Laboratory + View the NASA Portal
+ Center for Near-Earth Object Studies
JPL Home Earth Solar System Stars & Galaxies Technology
JPL Solar System Dynamics
BODIES ORBITS EPHEMERIDES TOOLS PHYSICAL DATA DISCOVERY FAQ SITE MAP
IMPORTANT: The SSD Announcement email list is now available. Major changes are coming in the near future, including possible hostname and/or URL changes. To be notified of such changes, subscribe to this email list.

Please visit this page for more details.


JPL Small-Body Database Browser
Search: [ help ]  
215924 (2005 JX104)
Classification: Main-belt Asteroid          SPK-ID: 2215924
Ephemeris | Orbit Diagram | Orbital Elements | Mission Design | Physical Parameters | Discovery Circumstances | Close-Approach Data ]

[ show orbit diagram ]
Orbital Elements at Epoch 2459000.5 (2020-May-31.0) TDB
Reference: JPL 6 (heliocentric ecliptic J2000)
 Element Value Uncertainty (1-sigma)   Units 
e .2519283583257527 9.6667e-08  
a 2.58630789669166 2.6998e-08 au
q 1.9347435941532 2.6205e-07 au
i 5.588586704726738 5.6628e-06 deg
node 53.46404995087728 0.00010433 deg
peri 80.14606027893615 0.00010764 deg
M 290.3836932880656 1.5676e-05 deg
tp 2459294.283394261405
(2021-Mar-20.78339426)
6.4885e-05 TDB
period 1519.213341376164
4.16
2.3788e-05
6.513e-08
d
yr
n .2369647436573311 3.7104e-09 deg/d
Q 3.237872199230121 3.3799e-08 au
  Orbit Determination Parameters
   # obs. used (total)      201  
   data-arc span      6321 days (17.31 yr)  
   first obs. used      1999-12-05  
   last obs. used      2017-03-26  
   planetary ephem.      DE431  
   SB-pert. ephem.      SB431-N16  
   condition code      0  
   norm. resid. RMS      .60451  
   source      ORB  
   producer      Otto Matic  
   solution date      2017-Apr-10 23:31:41  

Additional Information
 Earth MOID = .958326 au 
 Jupiter MOID = 1.84222 au 
 T_jup = 3.370 
[ show covariance matrix ]

Ephemeris | Orbit Diagram | Orbital Elements | Mission Design | Physical Parameters | Discovery Circumstances | Close-Approach Data ]

Physical Parameter Table
Parameter Symbol Value Units Sigma Reference Notes
absolute magnitude H 17.7   n/a MPO260382  

215924 (2005 JX104)          Discovered 2005-May-11 by Spacewatch at Kitt Peak
Reference: 20090607/Numbers.arcLast Updated: 2009-06-08

[ show close-approach data ]
Alternate Designations
 2005 JX104 = 1999 XV246 
Ephemeris | Orbit Diagram | Orbital Elements | Mission Design | Physical Parameters | Discovery Circumstances | Close-Approach Data ]
ABOUT SSD CREDITS/AWARDS PRIVACY/COPYRIGHT GLOSSARY LINKS
FirstGov 2020-Jun-03 04:28 UT
(server date/time)  
NASA Home Page
Site Manager:   Ryan S. Park
Webmaster  Alan B. Chamberlin